Idabel, OK

10:09 PM CST on February 21, 2018 (GMT -0600)
Idabel

Weather History for K4O4 - July, 2013

Change the Weather History Date:

Tuesday, July 23, 2013

  Actual Average (KPRX) Record (KPRX)
Temperature  
Mean Temperature 84 °F -  
Max Temperature 96 °F 91 °F 100 °F (1998)
Min Temperature 71 °F 70 °F 68 °F (2007)
Cooling Degree Days 18    
Growing Degree Days 34 (Base 50)    
Moisture  
Dew Point 71 °F    
Average Humidity 71    
Maximum Humidity 88    
Minimum Humidity 44    
Precipitation  
Precipitation 1.61 in - - ()
Sea Level Pressure  
Sea Level Pressure 29.92 in    
Wind  
Wind Speed 9 mph (SSW)    
Max Wind Speed 20 mph    
Max Gust Speed 38 mph    
Visibility 9 miles    
Events      
Averages and records for this station are not official NWS values.
T = Trace of Precipitation, MM = Missing Value Source: NWS Daily Summary

Daily Weather History Graph

Daily Weather History Graph

Search for Another Location

Airport or City:

Trip Planner

Search our weather history database for the weather conditions in past years. The results will help you decide how hot, cold, wet, or windy it might be!

Date:

Astronomy

Jul. 23, 2013 Rise Set
Actual Time 6:24 AM CDT 8:26 PM CDT
Civil Twilight 5:56 AM CDT 8:54 PM CDT
Nautical Twilight 5:22 AM CDT 9:28 PM CDT
Astronomical Twilight 4:46 AM CDT 10:04 PM CDT
Moon 9:03 PM CDT (7/23) 7:28 AM CDT (7/23)
Length of Visible Light 14h 57m
Length of Day
14h 01m
Full, 99% of the Moon is Illuminated
Jul 23
Full
Jul 29
Last Quarter
Aug 6
New
Aug 14
First Quarter
Aug 20
Full

Hourly Weather History & Observations

Time (CDT) Temp. Heat Index Dew Point Humidity Pressure Visibility Wind Dir Wind Speed Gust Speed Precip Events Conditions
12:15 AM 78.8 °F - 69.8 °F 74% 29.94 in 10.0 mi South 6.9 mph - N/A   Clear
12:35 AM 78.8 °F - 69.8 °F 74% 29.93 in 10.0 mi South 8.1 mph - N/A   Clear
12:55 AM 80.6 °F 83.9 °F 69.8 °F 70% 29.93 in 10.0 mi South 6.9 mph - N/A   Clear
1:15 AM 80.6 °F 83.9 °F 69.8 °F 70% 29.93 in 10.0 mi South 8.1 mph - N/A   Clear
1:35 AM 78.8 °F - 69.8 °F 74% 29.94 in 10.0 mi South 6.9 mph - N/A   Clear
1:55 AM 78.8 °F - 69.8 °F 74% 29.93 in 10.0 mi South 8.1 mph - N/A   Clear
2:15 AM 78.8 °F - 69.8 °F 74% 29.93 in 10.0 mi SSW 8.1 mph - N/A   Clear
2:35 AM 78.8 °F - 69.8 °F 74% 29.93 in 10.0 mi SSW 8.1 mph - N/A   Clear
2:55 AM 78.8 °F - 69.8 °F 74% 29.92 in 10.0 mi SSW 8.1 mph - N/A   Clear
3:15 AM 78.8 °F - 71.6 °F 78% 29.92 in 10.0 mi South 6.9 mph - N/A   Clear
3:35 AM 78.8 °F - 71.6 °F 78% 29.93 in 10.0 mi South 5.8 mph - N/A   Clear
3:55 AM 78.8 °F - 71.6 °F 78% 29.93 in 10.0 mi South 5.8 mph - N/A   Clear
4:15 AM 77.0 °F - 71.6 °F 83% 29.94 in 10.0 mi South 5.8 mph - N/A   Clear
4:35 AM 77.0 °F - 71.6 °F 83% 29.94 in 10.0 mi South 5.8 mph - N/A   Clear
4:55 AM 77.0 °F - 71.6 °F 83% 29.93 in 10.0 mi SSW 5.8 mph - N/A   Clear
5:15 AM 77.0 °F - 71.6 °F 83% 29.93 in 10.0 mi SSW 6.9 mph - N/A   Clear
5:35 AM 77.0 °F - 71.6 °F 83% 29.93 in 10.0 mi SSW 6.9 mph - N/A   Clear
5:55 AM 77.0 °F - 71.6 °F 83% 29.93 in 10.0 mi SSW 6.9 mph - N/A   Clear
6:15 AM 77.0 °F - 71.6 °F 83% 29.94 in 10.0 mi SSW 5.8 mph - N/A   Clear
6:35 AM 77.0 °F - 69.8 °F 78% 29.95 in 10.0 mi SSW 6.9 mph - N/A   Clear
6:55 AM 77.0 °F - 69.8 °F 78% 29.95 in 10.0 mi SSW 5.8 mph - N/A   Clear
7:15 AM 77.0 °F - 69.8 °F 78% 29.95 in 10.0 mi SSW 5.8 mph - N/A   Clear
7:35 AM 77.0 °F - 69.8 °F 78% 29.96 in 10.0 mi SW 6.9 mph - N/A   Clear
7:55 AM 78.8 °F - 69.8 °F 74% 29.97 in 10.0 mi SW 8.1 mph - N/A   Clear
8:15 AM 80.6 °F 83.9 °F 69.8 °F 70% 29.97 in 10.0 mi SW 9.2 mph - N/A   Clear
8:35 AM 80.6 °F 84.6 °F 71.6 °F 74% 29.97 in 10.0 mi SW 11.5 mph - N/A   Clear
8:55 AM 80.6 °F 84.6 °F 71.6 °F 74% 29.97 in 10.0 mi SW 13.8 mph - N/A   Clear
9:15 AM 82.4 °F 87.2 °F 71.6 °F 70% 29.97 in 10.0 mi SW 10.4 mph 16.1 mph N/A   Clear
9:35 AM 82.4 °F 87.2 °F 71.6 °F 70% 29.98 in 10.0 mi WSW 11.5 mph - N/A   Clear
9:55 AM 86.0 °F 91.8 °F 71.6 °F 62% 29.99 in 10.0 mi West 8.1 mph - N/A   Scattered Clouds
10:15 AM 86.0 °F 91.8 °F 71.6 °F 62% 29.99 in 10.0 mi WSW 6.9 mph - N/A   Scattered Clouds
10:35 AM 87.8 °F 93.8 °F 71.6 °F 58% 29.98 in 10.0 mi WSW 11.5 mph - N/A   Clear
10:55 AM 87.8 °F 93.8 °F 71.6 °F 58% 29.98 in 10.0 mi SW 4.6 mph - N/A   Clear
11:15 AM 89.6 °F 96.2 °F 71.6 °F 55% 29.98 in 10.0 mi SW 8.1 mph - N/A   Scattered Clouds
11:35 AM 89.6 °F 96.2 °F 71.6 °F 55% 29.97 in 10.0 mi SSW 8.1 mph - N/A   Mostly Cloudy
11:55 AM 89.6 °F 98.2 °F 73.4 °F 59% 29.97 in 10.0 mi SSW 9.2 mph - N/A   Scattered Clouds
12:15 PM 91.4 °F 100.1 °F 73.4 °F 55% 29.96 in 10.0 mi SSW 8.1 mph - N/A   Scattered Clouds
12:35 PM 91.4 °F 100.1 °F 73.4 °F 55% 29.95 in 10.0 mi WSW 10.4 mph - N/A   Scattered Clouds
1:15 PM 95.0 °F 104.5 °F 73.4 °F 49% 29.94 in 10.0 mi SW 10.4 mph - N/A   Clear
1:35 PM 95.0 °F 103.2 °F 71.6 °F 47% 29.93 in 10.0 mi SW 10.4 mph - N/A   Clear
1:55 PM 96.8 °F 107.3 °F 73.4 °F 47% 29.92 in 10.0 mi SW 8.1 mph - N/A   Clear
2:15 PM 96.8 °F 105.1 °F 71.6 °F 44% 29.92 in 10.0 mi SW 8.1 mph - N/A   Clear
2:35 PM 96.8 °F 107.3 °F 73.4 °F 47% 29.91 in 10.0 mi SW 10.4 mph - N/A   Clear
3:15 PM 96.8 °F 107.3 °F 73.4 °F 47% 29.89 in 10.0 mi SSW 9.2 mph - N/A   Clear
3:35 PM 95.0 °F 103.2 °F 71.6 °F 47% 29.88 in 10.0 mi WSW 5.8 mph - N/A   Clear
3:55 PM 96.8 °F 105.1 °F 71.6 °F 44% 29.86 in 10.0 mi SSW 6.9 mph - N/A   Clear
4:15 PM 96.8 °F 105.1 °F 71.6 °F 44% 29.85 in 10.0 mi SSW 11.5 mph 16.1 mph N/A   Scattered Clouds
4:35 PM 96.8 °F 105.1 °F 71.6 °F 44% 29.86 in 10.0 mi SW 15.0 mph - N/A   Clear
4:55 PM 96.8 °F 105.1 °F 71.6 °F 44% 29.85 in 10.0 mi SSW 12.7 mph 18.4 mph N/A   Clear
5:15 PM 93.2 °F 100.5 °F 71.6 °F 49% 29.83 in 10.0 mi SW 12.7 mph 19.6 mph N/A   Clear
5:35 PM 91.4 °F 98.4 °F 71.6 °F 52% 29.83 in 7.0 mi West 8.1 mph - N/A   Scattered Clouds
5:55 PM 86.0 °F 90.4 °F 69.8 °F 58% 29.85 in 3.0 mi NE 13.8 mph 19.6 mph 0.02 in   Mostly Cloudy
6:15 PM 78.8 °F - 68.0 °F 69% 29.87 in 0.8 mi ENE 19.6 mph 25.3 mph 0.30 in   Overcast
6:35 PM 75.2 °F - 69.8 °F 83% 29.85 in 4.0 mi East 16.1 mph 24.2 mph 0.44 in   Mostly Cloudy
6:55 PM 73.4 °F - 69.8 °F 88% 29.91 in 10.0 mi East 17.3 mph 21.9 mph 0.44 in   Scattered Clouds
7:15 PM 73.4 °F - 69.8 °F 88% 29.92 in 10.0 mi ENE 16.1 mph 28.8 mph N/A   Scattered Clouds
7:35 PM 73.4 °F - 68.0 °F 83% 29.90 in 10.0 mi East 15.0 mph 21.9 mph N/A   Scattered Clouds
7:55 PM 71.6 °F - 68.0 °F 88% 29.88 in 4.0 mi ESE 16.1 mph - 0.02 in   Mostly Cloudy
8:15 PM 71.6 °F - 68.0 °F 88% 29.97 in 0.5 mi NNE 16.1 mph 35.7 mph 0.56 in   Overcast
8:35 PM 71.6 °F - 68.0 °F 88% 29.87 in 1.0 mi SSE 13.8 mph 38.0 mph 1.13 in   Overcast
8:55 PM 71.6 °F - 68.0 °F 88% 29.87 in 10.0 mi South 16.1 mph 23.0 mph 1.13 in   Scattered Clouds
9:15 PM 73.4 °F - 68.0 °F 83% 29.86 in 10.0 mi South 8.1 mph - N/A   Clear
9:35 PM 73.4 °F - 69.8 °F 88% 29.87 in 10.0 mi SE 4.6 mph - N/A   Clear
9:55 PM 75.2 °F - 69.8 °F 83% 29.88 in 10.0 mi East 8.1 mph - N/A   Clear
10:15 PM 73.4 °F - 69.8 °F 88% 29.90 in 10.0 mi East 15.0 mph - N/A   Scattered Clouds
10:35 PM 73.4 °F - 68.0 °F 83% 29.90 in 10.0 mi ESE 12.7 mph - N/A   Scattered Clouds
10:55 PM 71.6 °F - 68.0 °F 88% 29.89 in 10.0 mi ESE 9.2 mph - N/A   Clear
11:15 PM 71.6 °F - 68.0 °F 88% 29.89 in 10.0 mi East 6.9 mph - N/A   Clear
11:35 PM 71.6 °F - 68.0 °F 88% 29.89 in 10.0 mi SE 4.6 mph - N/A   Clear
11:55 PM 71.6 °F - 68.0 °F 88% 29.88 in 10.0 mi SSE 5.8 mph - N/A   Clear